GW2840 Weather Reports


time (UTC)temp
C
wind
direction
speed
KPH
gust
KPH
rain 1hr
cm
rain 24hr
cm
rain mn
cm
humidity
%
barometer
mb
20260504223941 20 115 1.6 4.8 0.00 0.00 0.00 31 1004.1
20260504223437 20 141 0.0 3.2 0.00 0.00 0.00 33 1003.9
20260504222933 21 146 0.0 3.2 0.00 0.00 0.00 32 1003.9
20260504222431 21 132 3.2 4.8 0.00 0.00 0.00 31 1003.9
20260504221929 21 119 1.6 3.2 0.00 0.00 0.00 31 1003.9
20260504221425 21 201 4.8 8.0 0.00 0.00 0.00 30 1003.8
20260504220922 21 135 1.6 3.2 0.00 0.00 0.00 31 1004.0
20260504220419 21 195 1.6 8.0 0.00 0.00 0.00 31 1003.9
20260504215916 21 240 3.2 4.8 0.00 0.00 0.00 31 1003.9
20260504215413 21 217 3.2 3.2 0.00 0.00 0.00 31 1004.0
20260504214909 21 80 1.6 3.2 0.00 0.00 0.00 30 1003.9
20260504214406 21 233 4.8 4.8 0.00 0.00 0.00 30 1004.0
20260504213903 21 172 1.6 3.2 0.00 0.00 0.00 30 1003.9
20260504213358 21 135 1.6 4.8 0.00 0.00 0.00 30 1003.9
20260504212856 21 124 3.2 4.8 0.00 0.00 0.00 30 1004.1
20260504212352 21 111 6.4 11.3 0.00 0.00 0.00 30 1003.8
20260504211850 21 236 4.8 4.8 0.00 0.00 0.00 29 1004.2
20260504211346 21 295 3.2 8.0 0.00 0.00 0.00 30 1003.9
20260504210843 21 192 3.2 3.2 0.00 0.00 0.00 30 1004.2
20260504210340 21 247 8.0 11.3 0.00 0.00 0.00 29 1004.1
20260504205837 21 151 0.0 3.2 0.00 0.00 0.00 31 1004.0
20260504205335 22 241 3.2 4.8 0.00 0.00 0.00 28 1004.1
20260504204833 21 266 4.8 4.8 0.00 0.00 0.00 29 1004.1
20260504204331 21 277 4.8 9.7 0.00 0.00 0.00 29 1004.0
20260504203830 21 226 4.8 4.8 0.00 0.00 0.00 29 1003.9
20260504203327 22 292 6.4 8.0 0.00 0.00 0.00 29 1004.2
20260504202822 22 142 1.6 4.8 0.00 0.00 0.00 29 1003.9
20260504202320 22 176 4.8 8.0 0.00 0.00 0.00 29 1004.0
20260504201816 22 2 4.8 9.7 0.00 0.00 0.00 29 1004.0
20260504201314 22 250 6.4 8.0 0.00 0.00 0.00 28 1004.0
20260504200811 22 152 0.0 4.8 0.00 0.00 0.00 28 1004.0
20260504200308 22 219 3.2 8.0 0.00 0.00 0.00 28 1004.0
20260504195804 22 153 3.2 9.7 0.00 0.00 0.00 27 1004.0
20260504195300 22 199 4.8 8.0 0.00 0.00 0.00 28 1004.0
20260504194757 22 176 3.2 4.8 0.00 0.00 0.00 28 1004.0
20260504194253 22 221 4.8 4.8 0.00 0.00 0.00 27 1004.1
20260504193749 23 244 4.8 9.7 0.00 0.00 0.00 27 1004.2
20260504193247 22 170 3.2 4.8 0.00 0.00 0.00 27 1004.0
20260504192745 22 355 4.8 9.7 0.00 0.00 0.00 27 1004.1
20260504192243 22 228 3.2 8.0 0.00 0.00 0.00 27 1004.1
20260504191741 22 78 3.2 8.0 0.00 0.00 0.00 27 1004.1
20260504191238 22 109 3.2 8.0 0.00 0.00 0.00 27 1004.1
20260504190733 22 169 1.6 3.2 0.00 0.00 0.00 27 1004.1
20260504190230 22 185 6.4 9.7 0.00 0.00 0.00 28 1004.4
20260504185726 22 151 3.2 3.2 0.00 0.00 0.00 27 1004.4
20260504185223 22 243 4.8 4.8 0.00 0.00 0.00 27 1004.4
20260504184719 22 92 11.3 14.5 0.00 0.00 0.00 27 1004.3
20260504184215 21 124 3.2 8.0 0.00 0.00 0.00 27 1004.4
20260504183711 21 211 1.6 11.3 0.00 0.00 0.00 27 1004.5
20260504183208 21 177 4.8 4.8 0.00 0.00 0.00 27 1004.6
20260504182707 21 155 4.8 8.0 0.00 0.00 0.00 28 1004.6
20260504182203 21 230 4.8 8.0 0.00 0.00 0.00 27 1004.7
20260504181701 22 157 4.8 11.3 0.00 0.00 0.00 26 1004.9
20260504181158 21 163 4.8 8.0 0.00 0.00 0.00 27 1004.7
20260504180657 21 221 6.4 9.7 0.00 0.00 0.00 27 1004.6
20260504180155 21 354 11.3 12.9 0.00 0.00 0.00 28 1004.7
20260504175652 21 158 3.2 8.0 0.00 0.00 0.00 27 1004.8
20260504175149 21 157 1.6 8.0 0.00 0.00 0.00 28 1004.8
20260504174647 21 60 1.6 8.0 0.00 0.00 0.00 28 1004.6
20260504174144 21 83 3.2 4.8 0.00 0.00 0.00 28 1004.9
20260504173641 21 174 1.6 8.0 0.00 0.00 0.00 29 1004.9
20260504173138 21 271 8.0 9.7 0.00 0.00 0.00 28 1004.9
20260504172635 21 114 3.2 14.5 0.00 0.00 0.00 27 1004.9
20260504172131 20 244 3.2 4.8 0.00 0.00 0.00 30 1004.8
20260504171628 20 18 8.0 12.9 0.00 0.00 0.00 28 1005.1
20260504171125 21 256 6.4 9.7 0.00 0.00 0.00 28 1005.1
20260504170621 20 337 4.8 8.0 0.00 0.00 0.00 28 1005.1
20260504170119 20 185 1.6 8.0 0.00 0.00 0.00 29 1005.3
20260504151004 17 112 4.8 9.7 0.00 0.00 0.00 33 1006.6
20260504150502 17 208 3.2 8.0 0.00 0.00 0.00 35 1006.7
20260504140927 17 149 1.6 3.2 0.00 0.00 0.00 38 1007.0
20260504140424 17 215 1.6 4.8 0.00 0.00 0.00 38 1007.0
20260504130349 15 357 3.2 3.2 0.00 0.00 0.00 42 1007.7
20260504120312 11 123 1.6 3.2 0.00 0.00 0.00 47 1008.2
20260504110236 8 182 1.6 3.2 0.00 0.00 0.00 55 1007.8
20260504100154 6 153 0.0 1.6 0.00 0.00 0.00 60 1007.9
20260504090116 6 121 0.0 0.0 0.00 0.00 0.00 66 1007.8
20260504081547 6 124 0.0 0.0 0.00 0.00 0.00 62 1007.6
20260504081042 6 136 0.0 0.0 0.00 0.00 0.00 61 1007.8
20260504080539 6 135 0.0 1.6 0.00 0.00 0.00 62 1007.6
20260504050352 3 145 0.0 1.6 0.00 0.00 0.00 68 1007.9
20260504045849 3 121 0.0 0.0 0.00 0.00 0.00 70 1007.9
20260504045344 3 124 0.0 1.6 0.00 0.00 0.00 72 1007.9
20260504044841 2 125 0.0 0.0 0.00 0.00 0.00 74 1008.0
20260504044339 2 132 0.0 0.0 0.00 0.00 0.00 73 1007.9
20260504043836 2 138 0.0 1.6 0.00 0.00 0.00 74 1008.0
20260504043332 2 128 0.0 0.0 0.00 0.00 0.00 75 1008.0
20260504042830 2 127 0.0 0.0 0.00 0.00 0.00 75 1008.0
20260504042326 2 125 0.0 0.0 0.00 0.00 0.00 73 1008.0
20260504041823 2 125 0.0 0.0 0.00 0.00 0.00 74 1007.8
20260504041319 2 129 0.0 0.0 0.00 0.00 0.00 74 1007.9
20260504040815 2 150 0.0 1.6 0.00 0.00 0.00 74 1007.9
20260504040313 2 141 0.0 0.0 0.00 0.00 0.00 74 1008.0
20260504035808 2 142 0.0 1.6 0.00 0.00 0.00 73 1007.8
20260504035306 3 126 0.0 1.6 0.00 0.00 0.00 73 1007.7
20260504034803 3 136 0.0 0.0 0.00 0.00 0.00 71 1007.9
20260504034301 3 129 0.0 0.0 0.00 0.00 0.00 71 1007.7
20260504033758 3 139 0.0 0.0 0.00 0.00 0.00 69 1007.9
20260504033255 3 129 0.0 0.0 0.00 0.00 0.00 69 1007.8
20260504032752 3 136 0.0 1.6 0.00 0.00 0.00 69 1007.7
20260504032249 3 140 0.0 1.6 0.00 0.00 0.00 69 1007.6
20260504031746 3 129 0.0 1.6 0.00 0.00 0.00 69 1007.7
20260504031243 3 130 0.0 0.0 0.00 0.00 0.00 70 1007.6
20260504030739 3 129 0.0 0.0 0.00 0.00 0.00 69 1007.7
20260504030237 3 128 0.0 0.0 0.00 0.00 0.00 69 1007.6
20260504025733 3 130 0.0 0.0 0.00 0.00 0.00 68 1007.7
20260504025230 3 131 0.0 0.0 0.00 0.00 0.00 67 1007.7
20260504024727 4 128 0.0 0.0 0.00 0.00 0.00 67 1007.7
20260504024223 4 126 0.0 0.0 0.00 0.00 0.00 66 1007.6
20260504023720 4 131 0.0 0.0 0.00 0.00 0.00 67 1007.6
20260504023216 4 134 0.0 0.0 0.00 0.00 0.00 67 1007.6
20260504022712 4 130 0.0 0.0 0.00 0.00 0.00 67 1007.6
20260504022208 4 126 0.0 0.0 0.00 0.00 0.00 66 1007.3
20260504021706 5 126 0.0 0.0 0.00 0.00 0.00 66 1007.6
20260504021203 5 126 0.0 0.0 0.00 0.00 0.00 66 1007.5
20260504020700 5 127 0.0 0.0 0.00 0.00 0.00 65 1007.6
20260504020155 5 127 0.0 0.0 0.00 0.00 0.00 66 1007.7
20260504015652 5 127 0.0 0.0 0.00 0.00 0.00 65 1007.3
20260504015149 5 127 0.0 1.6 0.00 0.00 0.00 65 1007.5
20260504014644 5 131 0.0 0.0 0.00 0.00 0.00 64 1007.3
20260504014142 5 138 0.0 1.6 0.00 0.00 0.00 63 1007.4
20260504013639 5 127 0.0 0.0 0.00 0.00 0.00 63 1007.3
20260504013136 5 123 0.0 0.0 0.00 0.00 0.00 62 1007.3
20260504012633 5 123 0.0 0.0 0.00 0.00 0.00 60 1007.1
20260504012131 5 123 0.0 0.0 0.00 0.00 0.00 57 1007.2
20260504011628 6 123 0.0 0.0 0.00 0.00 0.00 58 1007.0
20260504011124 6 123 0.0 0.0 0.00 0.00 0.00 57 1007.1
20260504010620 6 123 0.0 0.0 0.00 0.00 0.00 57 1006.9
20260504010116 6 123 0.0 0.0 0.00 0.00 0.00 57 1006.9
20260504005613 6 123 0.0 0.0 0.00 0.00 0.00 57 1006.7
20260504005110 6 123 0.0 0.0 0.00 0.00 0.00 56 1006.7
20260504004608 6 123 0.0 0.0 0.00 0.00 0.00 53 1006.7
20260504004105 6 123 0.0 0.0 0.00 0.00 0.00 54 1006.7
20260504003601 7 123 0.0 0.0 0.00 0.00 0.00 52 1006.5
20260504003058 7 123 0.0 0.0 0.00 0.00 0.00 52 1006.6
20260504002555 7 122 0.0 0.0 0.00 0.00 0.00 52 1006.6
20260504002053 7 122 0.0 0.0 0.00 0.00 0.00 50 1006.4
20260504001550 7 122 0.0 0.0 0.00 0.00 0.00 49 1006.3
20260504001046 8 122 0.0 0.0 0.00 0.00 0.00 50 1006.5
20260504000543 8 122 0.0 0.0 0.00 0.00 0.00 46 1006.2
20260504000041 8 122 0.0 0.0 0.00 0.00 0.00 46 1006.2
20260503235539 9 123 0.0 0.0 0.00 0.00 0.00 45 1006.2
20260503235035 10 127 0.0 1.6 0.00 0.00 0.00 42 1006.3
20260503234533 10 126 0.0 1.6 0.00 0.00 0.00 40 1006.2
20260503234031 10 115 1.6 3.2 0.00 0.00 0.00 40 1006.0
20260503233527 10 120 0.0 0.0 0.00 0.00 0.00 41 1006.1
20260503233023 10 193 1.6 1.6 0.00 0.00 0.00 40 1006.1
20260503232520 10 110 0.0 1.6 0.00 0.00 0.00 40 1005.9
20260503232018 10 119 1.6 1.6 0.00 0.00 0.00 40 1005.9
20260503231516 10 142 1.6 4.8 0.00 0.00 0.00 40 1005.9
20260503231012 10 188 1.6 3.2 0.00 0.00 0.00 39 1005.8
20260503230509 10 123 1.6 1.6 0.00 0.00 0.00 39 1005.8
20260503230006 10 163 0.0 1.6 0.00 0.00 0.00 39 1005.8
20260503225503 10 82 1.6 1.6 0.00 0.00 0.00 40 1005.6
20260503224958 10 104 0.0 3.2 0.00 0.00 0.00 39 1005.7
20260503224455 10 127 0.0 1.6 0.00 0.00 0.00 38 1005.6